Minot, ND

5:18 PM CDT on September 29, 2016 (GMT -0500)
Minot International

Weather History for KMOT - February, 2013

Change the Weather History Date:

Tuesday, February 19, 2013

  Actual Average Record
Temperature  
Mean Temperature -11 °F 18 °F  
Max Temperature -4 °F 26 °F 52 °F (1931)
Min Temperature -19 °F 10 °F -36 °F (1929)
Degree Days  
Heating Degree Days 76 47  
Month to date heating degree days 915 937  
Since 1 July heating degree days 6316 6169  
Moisture  
Dew Point -20 °F    
Average Humidity 65    
Maximum Humidity 78    
Minimum Humidity 52    
Precipitation  
Precipitation 0.00 in 0.02 in 0.17 in (1897)
Month to date precipitation 0.40 0.25  
Year to date precipitation 0.51 0.76  
Sea Level Pressure  
Sea Level Pressure 30.53 in    
Wind  
Wind Speed 8 mph (North)    
Max Wind Speed 16 mph    
Max Gust Speed 21 mph    
Visibility 10 miles    
Events Snow    
T = Trace of Precipitation, MM = Missing Value Source: NWS Daily Summary

Daily Weather History Graph

Daily Weather History Graph

Search for Another Location

Airport or City:

Trip Planner

Search our weather history database for the weather conditions in past years. The results will help you decide how hot, cold, wet, or windy it might be!

Date:

Astronomy

Feb. 19, 2013 Rise Set
Actual Time 7:44 AM CST 6:14 PM CST
Civil Twilight 7:12 AM CST 6:45 PM CST
Nautical Twilight 6:36 AM CST 7:22 PM CST
Astronomical Twilight 6:00 AM CST 7:58 PM CST
Moon 12:32 PM CST (2/19) 3:32 AM CST (2/19)
Length of Visible Light 11h 33m
Length of Day
10h 29m
Waxing Gibbous, 67% of the Moon is Illuminated
Feb 19
Waxing Gibbous
Feb 25
Full
Mar 4
Last Quarter
Mar 11
New
Mar 19
First Quarter

Hourly Weather History & Observations

Time (CST) Temp. Windchill Dew Point Humidity Pressure Visibility Wind Dir Wind Speed Gust Speed Precip Events Conditions
12:54 AM -11.0 °F -32.7 °F -18.0 °F 71% 30.47 in 10.0 mi WNW 13.8 mph - N/A Snow Blowing Snow
1:54 AM -11.0 °F -32.7 °F -18.9 °F 68% 30.47 in 10.0 mi NW 13.8 mph - N/A Snow Blowing Snow
2:54 AM -13.0 °F -34.3 °F -20.9 °F 68% 30.48 in 10.0 mi NNW 12.7 mph - N/A Snow Blowing Snow
3:54 AM -15.0 °F -36.8 °F -23.1 °F 67% 30.50 in 10.0 mi WNW 12.7 mph - N/A Snow Blowing Snow
4:54 AM -15.0 °F -33.7 °F -23.1 °F 67% 30.50 in 10.0 mi NW 9.2 mph - N/A Snow Blowing Snow
5:54 AM -17.0 °F -36.1 °F -24.0 °F 70% 30.51 in 10.0 mi NW 9.2 mph - N/A Snow Blowing Snow
6:54 AM -18.0 °F -36.1 °F -25.1 °F 70% 30.53 in 10.0 mi WNW 8.1 mph - N/A Snow Blowing Snow
7:54 AM -18.0 °F -36.1 °F -24.0 °F 74% 30.56 in 10.0 mi West 8.1 mph - N/A Snow Blowing Snow
8:54 AM -17.0 °F -36.1 °F -24.0 °F 70% 30.57 in 10.0 mi WNW 9.2 mph - N/A Snow Blowing Snow
9:54 AM -13.0 °F -28.6 °F -20.9 °F 68% 30.58 in 10.0 mi NNW 6.9 mph - N/A Snow Blowing Snow
10:54 AM -11.9 °F -23.8 °F -20.0 °F 67% 30.58 in 10.0 mi NNW 4.6 mph - N/A Snow Blowing Snow
12:54 PM -9.9 °F - -18.0 °F 68% 30.59 in 10.0 mi Calm Calm - N/A Snow Blowing Snow
1:54 PM -6.0 °F -16.9 °F -16.1 °F 62% 30.56 in 10.0 mi North 4.6 mph - N/A Snow Blowing Snow
2:54 PM -5.1 °F -15.8 °F -17.0 °F 57% 30.55 in 10.0 mi ENE 4.6 mph - N/A   Clear
3:54 PM -4.0 °F -16.3 °F -17.0 °F 54% 30.54 in 10.0 mi ENE 5.8 mph - N/A   Clear
4:54 PM -6.0 °F -18.6 °F -18.0 °F 56% 30.54 in 10.0 mi East 5.8 mph - N/A   Clear
6:54 PM -11.0 °F -24.6 °F -20.0 °F 64% 30.53 in 10.0 mi ENE 5.8 mph - N/A   Clear
7:54 PM -11.9 °F -23.8 °F -20.0 °F 67% 30.54 in 10.0 mi ENE 4.6 mph - N/A   Clear
8:54 PM -11.0 °F -22.8 °F -18.9 °F 68% 30.54 in 10.0 mi East 4.6 mph - N/A   Clear
9:54 PM -9.0 °F -29.3 °F -18.9 °F 62% 30.53 in 10.0 mi East 12.7 mph - N/A   Clear
10:54 PM -9.9 °F -32.1 °F -18.9 °F 65% 30.51 in 10.0 mi ESE 15.0 mph - N/A   Clear
11:54 PM -9.9 °F -31.3 °F -18.9 °F 65% 30.51 in 10.0 mi ESE 13.8 mph - N/A   Clear